Home > Weather > Canada > Stephenville > Past weeks

Flag for Canada Weather past 2 weeks in Stephenville, Newfoundland and Labrador, Canada

34 °F


Feels Like: 22 °F
Forecast: N/A
Wind: 20 mph from West

Location: Stephenville

Current Time: Dec 1, 2015 at 5:14:46 PM

Latest Report: Dec 1, 2015 at 4:30 PM

Visibility: 15 mi

Pressure: 30.14 "Hg

Humidity: 75%

Dew point: 27 °F

Location of StephenvilleLocation

Historic Weather in Stephenville — Graph


Stephenville temperature yesterday

Maximum temperature yesterday: 28 °F (at 11:31 PM)
Minimum temperature yesterday: 14 °F (at 4:30 AM)
Average temperature yesterday: 20 °F

Past Weeks' High & Low Weather Summary

High55 °F (Nov 23, 10:30 AM)100% (Nov 21, 9:30 PM)30.92 "Hg (Nov 21, 9:30 PM)
Low14 °F (Nov 30, 4:30 AM)58% (Nov 30, 2:30 PM)29.40 "Hg (Nov 24, 2:30 AM)
Average34 °F79%30.25 "Hg
* Reported Nov 16 3:30 PM — Dec 1 3:30 PM, Stephenville, Weather by CustomWeather, © 2015

Note: Actual official high and low records may vary slightly from our data, if they occured in-between our weather recording intervals... More about our weather records


Stephenville weather history for previous 24 hours

Time TempWeatherWind HumidityBarometerVisibility
3:30 PM
Tue, Dec 1
32 °FOvercast.21 mph75%30.13 "Hg15 mi
2:30 PM32 °FOvercast.16 mph75%30.13 "Hg15 mi
1:30 PM30 °FOvercast.16 mph75%30.13 "Hg15 mi
12:30 PM30 °FOvercast.20 mph64%30.13 "Hg15 mi
11:30 AM30 °FSnow flurries. Overcast.18 mph69%30.14 "Hg15 mi
10:30 AM30 °FSnow flurries. Partly sunny.17 mph64%30.14 "Hg12 mi
9:30 AM28 °FSnow flurries. Partly sunny.22 mph80%30.14 "Hg10 mi
8:30 AM28 °FSnow flurries. Overcast.22 mph86%30.13 "Hg4 mi
7:30 AM32 °FSnow flurries. Partly sunny.25 mph69%30.12 "Hg12 mi
6:30 AM32 °FSnow flurries. Passing clouds.28 mph60%30.12 "Hg12 mi
5:30 AM30 °FSnow flurries. Overcast.22 mph80%30.14 "Hg3 mi
4:30 AM30 °FSnow flurries. Overcast.30 mph75%30.15 "Hg12 mi
3:30 AM28 °FSnow flurries. Passing clouds.23 mph74%30.16 "Hg3 mi
2:30 AM27 °FSnow flurries. Passing clouds.17 mph86%30.19 "Hg15 mi
1:30 AM28 °FSnow flurries. Overcast.21 mph69%30.21 "Hg15 mi
12:30 AM28 °FSnow flurries. Overcast.21 mph64%30.23 "Hg15 mi
11:31 PM
Mon, Nov 30
28 °FSnow flurries. Passing clouds.21 mph64%30.25 "Hg15 mi
10:30 PM25 °FPassing clouds.12 mph69%30.27 "Hg15 mi
8:30 PM23 °FOvercast.10 mph58%30.31 "Hg15 mi
7:30 PM23 °FPassing clouds.12 mph63%30.33 "Hg15 mi
6:30 PM21 °FPassing clouds.12 mph68%30.32 "Hg15 mi
5:30 PM21 °FPassing clouds.9 mph63%30.31 "Hg15 mi
Weather by CustomWeather, © 2015

See weather overviewHow to use our weather pages